| time (UTC) | temp F | wind direction | speed knots | gust knots | rain 1hr in | rain 24hr in | rain mn in | humidity % | barometer mb |
| 20260906082412 | 64 | 341 | 0.0 | 0.0 | 0.05 | 0.00 | 1.60 | 99 | 1013.8 |
| 20260906081213 | 65 | 341 | 0.0 | 0.0 | 0.13 | 0.00 | 1.55 | 99 | 1013.7 |
| 20260906080012 | 65 | 341 | 0.0 | 0.0 | 0.13 | 0.00 | 1.52 | 99 | 1013.9 |
| 20260906074811 | 65 | 342 | 0.0 | 0.0 | 0.14 | 0.00 | 1.49 | 99 | 1013.9 |
| 20260906073612 | 65 | 342 | 0.0 | 0.0 | 0.14 | 0.00 | 1.46 | 99 | 1013.9 |
| 20260906072411 | 65 | 342 | 0.0 | 0.0 | 0.16 | 0.00 | 1.44 | 99 | 1013.7 |
| 20260906071211 | 65 | 342 | 0.0 | 0.0 | 0.27 | 0.00 | 1.41 | 99 | 1013.6 |
| 20260906070012 | 65 | 341 | 0.0 | 0.0 | 0.24 | 0.00 | 1.38 | 99 | 1013.7 |
| 20260906064812 | 65 | 341 | 0.0 | 0.0 | 0.21 | 0.00 | 1.35 | 99 | 1013.6 |
| 20260906063611 | 65 | 341 | 0.0 | 0.0 | 0.17 | 0.00 | 1.31 | 99 | 1013.5 |
| 20260906062412 | 65 | 341 | 0.0 | 0.0 | 0.19 | 0.00 | 1.27 | 99 | 1013.9 |
| 20260906060011 | 65 | 340 | 0.0 | 0.0 | 0.23 | 0.00 | 1.14 | 99 | 1013.9 |
| 20260906054811 | 65 | 340 | 0.0 | 0.0 | 0.23 | 0.00 | 1.14 | 99 | 1013.9 |
| 20260906053612 | 65 | 340 | 0.0 | 0.0 | 0.20 | 0.00 | 1.10 | 99 | 1013.9 |
| 20260906052412 | 65 | 340 | 0.0 | 0.0 | 0.25 | 0.00 | 1.08 | 99 | 1014.3 |
| 20260906051211 | 64 | 337 | 0.0 | 0.0 | 0.25 | 0.00 | 1.04 | 99 | 1014.4 |
| 20260906050013 | 64 | 275 | 0.0 | 0.0 | 0.24 | 0.00 | 0.91 | 99 | 1014.3 |
| 20260906044811 | 64 | 275 | 0.0 | 0.0 | 0.24 | 0.00 | 0.91 | 99 | 1014.3 |
| 20260906043612 | 64 | 312 | 0.9 | 0.9 | 0.18 | 0.00 | 0.85 | 99 | 1014.3 |
| 20260906042411 | 64 | 304 | 1.7 | 1.7 | 0.38 | 0.00 | 0.83 | 99 | 1014.6 |
| 20260906041212 | 64 | 215 | 0.0 | 0.0 | 0.32 | 0.00 | 0.77 | 99 | 1014.5 |
| 20260906040013 | 64 | 220 | 0.0 | 0.9 | 0.28 | 0.00 | 0.73 | 99 | 1014.8 |
| 20260906034811 | 65 | 228 | 0.0 | 0.9 | 0.22 | 0.00 | 0.67 | 99 | 1014.8 |
| 20260906033611 | 65 | 254 | 0.0 | 0.0 | 0.21 | 0.00 | 0.65 | 99 | 1015.2 |
| 20260906031212 | 64 | 252 | 0.0 | 0.0 | 0.15 | 0.00 | 0.45 | 99 | 1015.4 |
| 20260906030012 | 64 | 252 | 0.0 | 0.0 | 0.15 | 0.00 | 0.45 | 99 | 1015.4 |
| 20260906024812 | 64 | 252 | 0.0 | 0.0 | 0.17 | 0.00 | 0.45 | 99 | 1015.5 |
| 20260906023612 | 64 | 48 | 0.0 | 0.0 | 0.16 | 0.00 | 0.42 | 99 | 1015.7 |
| 20260906022411 | 65 | 48 | 0.0 | 0.0 | 0.15 | 0.00 | 0.39 | 99 | 1015.8 |
| 20260906021211 | 64 | 44 | 0.0 | 0.0 | 0.16 | 0.00 | 0.36 | 99 | 1016.1 |
| 20260906020012 | 64 | 132 | 0.0 | 0.0 | 0.16 | 0.00 | 0.31 | 99 | 1016.3 |
| 20260906014813 | 64 | 74 | 0.0 | 0.0 | 0.24 | 0.00 | 0.28 | 99 | 1016.2 |
| 20260906013613 | 65 | 44 | 0.0 | 1.7 | 0.21 | 0.00 | 0.25 | 99 | 1016.2 |
| 20260906012413 | 64 | 84 | 1.7 | 3.5 | 0.19 | 0.00 | 0.23 | 99 | 1015.9 |
| 20260906011212 | 65 | 285 | 0.0 | 0.9 | 0.14 | 0.00 | 0.18 | 99 | 1015.9 |
| 20260906010012 | 65 | 244 | 0.0 | 0.0 | 0.11 | 0.00 | 0.15 | 99 | 1016.3 |
| 20260906000012 | 65 | 197 | 1.7 | 1.7 | 0.02 | 0.00 | 0.04 | 99 | 1016.4 |
| 20260905234813 | 65 | 197 | 1.7 | 1.7 | 0.02 | 0.00 | 0.04 | 99 | 1016.4 |
| 20260905233615 | 65 | 266 | 0.9 | 0.9 | 0.02 | 0.00 | 0.03 | 99 | 1016.2 |
| 20260905232413 | 65 | 233 | 0.0 | 0.9 | 0.02 | 0.00 | 0.03 | 99 | 1016.5 |
| 20260905231214 | 65 | 214 | 0.0 | 0.9 | 0.02 | 0.00 | 0.03 | 99 | 1016.3 |
| 20260905230012 | 65 | 274 | 0.0 | 0.9 | 0.02 | 0.00 | 0.02 | 99 | 1016.4 |
| 20260905224814 | 65 | 265 | 1.7 | 1.7 | 0.02 | 0.00 | 0.02 | 99 | 1016.4 |
| 20260905223612 | 65 | 243 | 0.9 | 1.7 | 0.01 | 0.00 | 0.01 | 99 | 1016.1 |
| 20260905222413 | 65 | 212 | 0.9 | 1.7 | 0.01 | 0.00 | 0.01 | 99 | 1016.1 |
| 20260905221213 | 65 | 221 | 0.9 | 1.7 | 0.00 | 0.00 | 0.00 | 99 | 1015.8 |
| 20260905220012 | 65 | 233 | 1.7 | 2.6 | 0.00 | 0.00 | 0.00 | 99 | 1015.8 |
| 20260905214812 | 65 | 257 | 0.9 | 1.7 | 0.00 | 0.00 | 0.00 | 99 | 1015.7 |
| 20260905213612 | 65 | 202 | 0.9 | 1.7 | 0.00 | 0.00 | 0.00 | 99 | 1015.8 |
| 20260905212414 | 65 | 239 | 0.0 | 0.9 | 0.00 | 0.00 | 0.00 | 99 | 1015.9 |
| 20260905211211 | 65 | 257 | 0.0 | 0.0 | 0.00 | 0.00 | 0.00 | 99 | 1015.7 |
| 20260905210013 | 65 | 225 | 0.9 | 0.9 | 0.00 | 0.00 | 0.00 | 99 | 1015.6 |
| 20260905204813 | 65 | 189 | 0.9 | 1.7 | 0.00 | 0.00 | 0.00 | 99 | 1015.7 |
| 20260905203613 | 65 | 218 | 0.9 | 1.7 | 0.00 | 0.00 | 0.00 | 99 | 1015.7 |
| 20260905202414 | 65 | 273 | 1.7 | 1.7 | 0.00 | 0.00 | 0.00 | 99 | 1015.5 |
| 20260905201215 | 65 | 205 | 0.9 | 1.7 | 0.00 | 0.00 | 0.00 | 99 | 1015.2 |
| 20260905200014 | 65 | 219 | 1.7 | 1.7 | 0.00 | 0.00 | 0.00 | 99 | 1015.4 |
| 20260905194812 | 65 | 242 | 1.7 | 1.7 | 0.00 | 0.00 | 0.00 | 99 | 1015.5 |
| 20260905193613 | 65 | 228 | 1.7 | 1.7 | 0.00 | 0.00 | 0.00 | 99 | 1015.5 |
| 20260905192414 | 65 | 223 | 0.0 | 1.7 | 0.00 | 0.00 | 0.00 | 99 | 1015.7 |
| 20260905191213 | 65 | 223 | 0.0 | 0.0 | 0.00 | 0.00 | 0.00 | 99 | 1015.5 |
| 20260905190013 | 65 | 225 | 0.9 | 1.7 | 0.00 | 0.00 | 0.00 | 99 | 1015.4 |
| 20260905184815 | 65 | 191 | 0.9 | 1.7 | 0.00 | 0.00 | 0.00 | 99 | 1015.5 |
| 20260905183614 | 65 | 201 | 1.7 | 2.6 | 0.00 | 0.00 | 0.00 | 99 | 1015.7 |
| 20260905182412 | 65 | 224 | 0.0 | 0.9 | 0.00 | 0.00 | 0.00 | 99 | 1015.6 |
| 20260905181212 | 65 | 231 | 1.7 | 1.7 | 0.00 | 0.00 | 0.00 | 99 | 1015.5 |
| 20260905180013 | 65 | 224 | 1.7 | 2.6 | 0.00 | 0.00 | 0.00 | 99 | 1015.7 |
| 20260905174813 | 65 | 223 | 0.9 | 1.7 | 0.00 | 0.00 | 0.00 | 99 | 1015.7 |
| 20260905173612 | 65 | 213 | 2.6 | 2.6 | 0.00 | 0.00 | 0.00 | 99 | 1015.7 |
| 20260905172414 | 65 | 267 | 1.7 | 1.7 | 0.00 | 0.00 | 0.00 | 99 | 1015.7 |
| 20260905171214 | 65 | 220 | 0.9 | 1.7 | 0.00 | 0.00 | 0.00 | 99 | 1015.7 |
| 20260905170012 | 65 | 212 | 1.7 | 1.7 | 0.00 | 0.00 | 0.00 | 99 | 1015.6 |
| 20260905164812 | 65 | 232 | 1.7 | 2.6 | 0.00 | 0.00 | 0.00 | 99 | 1015.5 |
| 20260905163614 | 65 | 208 | 0.9 | 1.7 | 0.00 | 0.00 | 0.00 | 99 | 1015.7 |
| 20260905162413 | 65 | 197 | 1.7 | 2.6 | 0.00 | 0.00 | 0.00 | 99 | 1015.6 |
| 20260905161212 | 65 | 244 | 2.6 | 3.5 | 0.00 | 0.00 | 0.00 | 99 | 1015.2 |
| 20260905160012 | 65 | 223 | 2.6 | 3.5 | 0.00 | 0.00 | 0.00 | 99 | 1015.7 |
| 20260905154814 | 65 | 191 | 1.7 | 2.6 | 0.00 | 0.00 | 0.00 | 99 | 1015.4 |
| 20260905153614 | 65 | 287 | 3.5 | 3.5 | 0.00 | 0.00 | 0.00 | 98 | 1015.5 |
| 20260905152414 | 66 | 270 | 0.9 | 1.7 | 0.00 | 0.00 | 0.00 | 98 | 1015.4 |
| 20260905145928 | 66 | 244 | 1.7 | 1.7 | 0.00 | 0.20 | 0.20 | 97 | 1015.5 |
| 20260905123919 | 69 | 256 | 0.9 | 2.6 | 0.00 | 0.00 | 0.20 | 99 | 1014.9 |
| 20260905122719 | 68 | 122 | 3.5 | 11.3 | 0.00 | 0.00 | 0.20 | 98 | 1014.8 |
| 20260905122402 | 68 | 50 | 2.6 | 5.2 | 0.00 | 0.33 | 0.20 | 99 | 1014.8 |
| 20260905121203 | 68 | 259 | 0.0 | 0.9 | 0.00 | 0.33 | 0.20 | 99 | 1014.9 |
| 20260905120003 | 68 | 269 | 0.9 | 1.7 | 0.00 | 0.33 | 0.20 | 99 | 1014.9 |
| 20260905114802 | 68 | 244 | 0.0 | 0.0 | 0.00 | 0.34 | 0.20 | 99 | 1014.8 |
| 20260905113604 | 67 | 271 | 0.9 | 0.9 | 0.00 | 0.35 | 0.20 | 99 | 1014.6 |
| 20260905112402 | 67 | 278 | 1.7 | 2.6 | 0.00 | 0.35 | 0.20 | 99 | 1014.6 |
| 20260905111202 | 68 | 267 | 1.7 | 2.6 | 0.00 | 0.36 | 0.20 | 99 | 1014.4 |
| 20260905110002 | 67 | 262 | 1.7 | 1.7 | 0.00 | 0.36 | 0.20 | 99 | 1014.4 |
| 20260905104801 | 68 | 272 | 1.7 | 1.7 | 0.00 | 0.36 | 0.20 | 99 | 1014.3 |
| 20260905103602 | 68 | 220 | 0.0 | 0.0 | 0.00 | 0.37 | 0.20 | 99 | 1014.1 |
| 20260905102403 | 68 | 230 | 1.7 | 1.7 | 0.00 | 0.38 | 0.20 | 99 | 1014.2 |
| 20260905101202 | 68 | 312 | 1.7 | 2.6 | 0.00 | 0.38 | 0.20 | 99 | 1014.0 |
| 20260905100003 | 68 | 245 | 0.0 | 0.0 | 0.00 | 0.38 | 0.20 | 99 | 1013.6 |
| 20260905094802 | 69 | 211 | 0.9 | 0.9 | 0.00 | 0.38 | 0.20 | 99 | 1013.4 |
| 20260905093601 | 69 | 242 | 0.9 | 1.7 | 0.00 | 0.38 | 0.20 | 99 | 1013.3 |
| 20260905092401 | 69 | 257 | 0.9 | 1.7 | 0.00 | 0.38 | 0.20 | 99 | 1013.3 |
| 20260905091201 | 70 | 152 | 1.7 | 2.6 | 0.00 | 0.38 | 0.20 | 99 | 1013.3 |
| 20260905090003 | 71 | 225 | 0.9 | 0.9 | 0.00 | 0.38 | 0.20 | 99 | 1013.0 |
| 20260905084802 | 71 | 108 | 0.0 | 0.0 | 0.00 | 0.38 | 0.20 | 98 | 1013.0 |
| 20260905083602 | 71 | 110 | 0.0 | 0.0 | 0.00 | 0.38 | 0.20 | 99 | 1012.9 |